GW5008 Weather Reports


time (UTC)temp
C
wind
direction
speed
KPH
gust
KPH
rain 1hr
cm
rain 24hr
cm
rain mn
cm
humidity
%
barometer
mb
20260507203437 11 23 0.0 3.2 0.00 0.00 0.00 51 1008.0
20260507202933 11 247 1.6 1.6 0.00 0.00 0.00 51 1008.0
20260507202430 11 348 0.0 3.2 0.00 0.00 0.00 52 1007.9
20260507201926 11 203 1.6 4.8 0.00 0.00 0.00 48 1007.9
20260507201421 12 73 3.2 3.2 0.00 0.00 0.00 49 1008.0
20260507200918 11 216 0.0 1.6 0.00 0.00 0.00 51 1008.0
20260507200414 11 36 1.6 6.4 0.00 0.00 0.00 52 1008.1
20260507195910 11 101 4.8 4.8 0.00 0.00 0.00 52 1008.0
20260507195408 11 239 3.2 9.7 0.00 0.00 0.00 49 1008.2
20260507194904 11 226 0.0 3.2 0.00 0.00 0.00 51 1008.1
20260507194401 11 87 3.2 4.8 0.00 0.00 0.00 52 1008.1
20260507193857 10 146 6.4 11.3 0.00 0.00 0.00 53 1008.2
20260507193355 10 128 8.0 11.3 0.00 0.00 0.00 53 1008.3
20260507192851 10 114 3.2 4.8 0.00 0.00 0.00 55 1008.3
20260507192347 11 89 3.2 4.8 0.00 0.00 0.00 52 1008.3
20260507191843 11 67 3.2 17.7 0.00 0.00 0.00 54 1008.3
20260507191340 11 79 9.7 14.5 0.00 0.00 0.00 48 1008.1
20260507190837 11 81 8.0 9.7 0.00 0.00 0.00 47 1008.2
20260507190335 12 71 9.7 17.7 0.00 0.00 0.00 48 1008.3
20260507185834 14 74 6.4 20.9 0.00 0.00 0.00 49 1008.4
20260507185330 12 269 3.2 9.7 0.00 0.00 0.00 48 1008.3
20260507184827 11 41 3.2 9.7 0.00 0.00 0.00 46 1008.4
20260507184325 11 70 6.4 14.5 0.00 0.00 0.00 50 1008.6
20260507183822 11 268 1.6 4.8 0.00 0.00 0.00 53 1008.8
20260507183319 11 89 8.0 17.7 0.00 0.00 0.00 52 1008.6
20260507182817 11 231 3.2 14.5 0.00 0.00 0.00 51 1008.4
20260507182312 12 173 1.6 6.4 0.00 0.00 0.00 49 1008.7
20260507181809 11 153 1.6 4.8 0.00 0.00 0.00 52 1008.7
20260507181304 11 199 4.8 9.7 0.00 0.00 0.00 50 1009.0
20260507180801 10 260 1.6 12.9 0.00 0.00 0.00 52 1008.8
20260507180258 10 87 4.8 6.4 0.00 0.00 0.00 51 1009.0
20260507175754 10 269 4.8 9.7 0.00 0.00 0.00 51 1009.1
20260507175251 10 323 0.0 11.3 0.00 0.00 0.00 52 1009.2
20260507174748 10 168 1.6 3.2 0.00 0.00 0.00 51 1008.8
20260507174246 11 180 0.0 11.3 0.00 0.00 0.00 51 1009.0
20260507173744 10 93 4.8 9.7 0.00 0.00 0.00 54 1009.1
20260507173241 10 59 3.2 12.9 0.00 0.00 0.00 51 1009.1
20260507172737 10 38 1.6 6.4 0.00 0.00 0.00 55 1009.1
20260507172234 10 271 3.2 24.1 0.00 0.00 0.00 51 1009.3
20260507171734 10 231 3.2 12.9 0.00 0.00 0.00 53 1009.1
20260507171232 11 168 6.4 12.9 0.00 0.00 0.00 52 1009.2
20260507170728 11 75 9.7 16.1 0.00 0.00 0.00 49 1009.2
20260507170225 12 81 16.1 20.9 0.00 0.00 0.00 46 1009.2
20260507165721 11 79 1.6 6.4 0.00 0.00 0.00 56 1009.5
20260507165217 11 252 4.8 6.4 0.00 0.00 0.00 50 1009.7
20260507164713 10 265 4.8 4.8 0.00 0.00 0.00 50 1009.8
20260507164211 10 42 1.6 12.9 0.00 0.00 0.00 54 1009.7
20260507163708 10 221 6.4 11.3 0.00 0.00 0.00 51 1009.7
20260507163206 10 69 9.7 16.1 0.00 0.00 0.00 56 1009.8
20260507162701 10 83 12.9 22.5 0.00 0.00 0.00 49 1009.8
20260507162157 11 197 3.2 11.3 0.00 0.00 0.00 51 1009.8
20260507161654 11 54 1.6 6.4 0.00 0.00 0.00 59 1009.7
20260507161150 9 100 3.2 17.7 0.00 0.00 0.00 59 1009.9
20260507160647 9 288 0.0 9.7 0.00 0.00 0.00 54 1009.9
20260507160144 11 46 3.2 9.7 0.00 0.00 0.00 53 1010.2
20260507155639 10 80 3.2 4.8 0.00 0.00 0.00 56 1010.1
20260507155136 11 197 3.2 12.9 0.00 0.00 0.00 52 1010.4
20260507154632 11 196 9.7 12.9 0.00 0.00 0.00 49 1010.3
20260507154130 11 101 3.2 4.8 0.00 0.00 0.00 52 1010.4
20260507153626 10 77 3.2 12.9 0.00 0.00 0.00 54 1010.5
20260507153123 10 76 12.9 16.1 0.00 0.00 0.00 52 1010.6
20260507152619 9 112 11.3 16.1 0.00 0.00 0.00 53 1010.4
20260507152115 9 215 6.4 11.3 0.00 0.00 0.00 57 1010.5
20260507151611 10 140 8.0 11.3 0.00 0.00 0.00 57 1010.6
20260507151109 10 118 6.4 24.1 0.00 0.00 0.00 55 1010.8
20260507150606 9 44 3.2 22.5 0.00 0.00 0.00 56 1010.6
20260507145557 8 226 6.4 9.7 0.00 0.00 0.00 59 1010.6
20260507145056 8 164 3.2 9.7 0.00 0.00 0.00 60 1010.9
20260507144551 8 82 4.8 4.8 0.00 0.00 0.00 55 1010.7
20260507144050 10 107 4.8 6.4 0.00 0.00 0.00 59 1010.8
20260507143546 10 11 1.6 4.8 0.00 0.00 0.00 62 1010.9
20260507143044 8 75 12.9 17.7 0.00 0.00 0.00 61 1010.9
20260507142538 8 88 3.2 6.4 0.00 0.00 0.00 63 1010.8
20260507142036 8 260 0.0 4.8 0.00 0.00 0.00 57 1010.9
20260507141532 8 101 6.4 9.7 0.00 0.00 0.00 56 1011.0
20260507141029 7 100 6.4 12.9 0.00 0.00 0.00 62 1010.8
20260507140526 8 86 1.6 4.8 0.00 0.00 0.00 66 1010.8
20260507140023 8 188 8.0 11.3 0.00 0.00 0.00 62 1011.0
20260507135520 8 96 4.8 6.4 0.00 0.00 0.00 63 1011.0
20260507135017 8 19 0.0 3.2 0.00 0.00 0.00 64 1011.0
20260507134514 7 108 1.6 3.2 0.00 0.00 0.00 64 1010.8
20260507134009 7 229 3.2 6.4 0.00 0.00 0.00 65 1011.0
20260507133505 8 225 1.6 3.2 0.00 0.00 0.00 61 1011.0
20260507133004 7 16 0.0 4.8 0.00 0.00 0.00 64 1011.2
20260507132500 7 68 4.8 11.3 0.00 0.00 0.00 69 1010.9
20260507131956 7 42 0.0 3.2 0.00 0.00 0.00 73 1011.0
20260507131453 7 260 1.6 6.4 0.00 0.00 0.00 72 1011.0
20260507130950 7 82 3.2 3.2 0.00 0.00 0.00 74 1011.3
20260507130447 6 101 3.2 4.8 0.00 0.00 0.00 74 1011.3
20260507125946 6 99 4.8 6.4 0.00 0.00 0.00 75 1011.3
20260507125444 6 205 1.6 4.8 0.00 0.00 0.00 78 1011.3
20260507124941 5 145 3.2 9.7 0.00 0.00 0.00 80 1011.2
20260507124437 5 99 4.8 9.7 0.00 0.00 0.00 80 1011.3
20260507123935 5 140 6.4 9.7 0.00 0.00 0.00 80 1011.4
20260507123433 5 191 1.6 4.8 0.00 0.00 0.00 81 1011.3
20260507122929 5 60 0.0 4.8 0.00 0.00 0.00 83 1011.3
20260507122424 5 121 1.6 6.4 0.00 0.00 0.00 82 1011.2
20260507121921 5 92 1.6 4.8 0.00 0.00 0.00 82 1011.0
20260507121416 5 77 0.0 1.6 0.00 0.00 0.00 81 1010.8
20260507120913 5 306 0.0 6.4 0.00 0.00 0.00 82 1010.7
20260507120409 5 93 1.6 3.2 0.00 0.00 0.00 82 1010.9
20260507115905 4 82 1.6 1.6 0.00 0.00 0.00 82 1010.9
20260507115401 3 108 1.6 4.8 0.00 0.00 0.00 82 1011.0
20260507114857 3 107 3.2 6.4 0.00 0.00 0.00 83 1011.0
20260507114355 3 93 1.6 3.2 0.00 0.00 0.00 83 1011.0
20260507113852 3 178 0.0 3.2 0.00 0.00 0.00 83 1011.2
20260507113349 3 65 0.0 3.2 0.00 0.00 0.00 83 1010.9
20260507112846 3 134 1.6 3.2 0.00 0.00 0.00 83 1010.9
20260507112343 3 304 1.6 6.4 0.00 0.00 0.00 86 1010.8
20260507111841 3 123 3.2 4.8 0.00 0.00 0.00 88 1010.8
20260507111338 3 77 1.6 3.2 0.00 0.00 0.00 90 1010.6
20260507110833 3 164 0.0 4.8 0.00 0.00 0.00 90 1010.7
20260507110330 3 94 1.6 3.2 0.00 0.00 0.00 90 1010.6
20260507105827 2 79 0.0 3.2 0.00 0.00 0.00 92 1010.6
20260507105323 2 140 0.0 0.0 0.00 0.00 0.00 91 1010.6
20260507104820 2 303 0.0 0.0 0.00 0.00 0.00 94 1010.5
20260507104317 2 82 1.6 1.6 0.00 0.00 0.00 95 1010.5
20260507103813 1 124 0.0 3.2 0.00 0.00 0.00 96 1010.6
20260507103309 1 96 0.0 1.6 0.00 0.00 0.00 97 1010.4
20260507102806 1 114 3.2 3.2 0.00 0.00 0.00 97 1010.3
20260507102306 1 98 1.6 1.6 0.00 0.00 0.00 97 1010.3
20260507101759 1 90 1.6 3.2 0.00 0.00 0.00 97 1010.2
20260507101254 1 105 1.6 3.2 0.00 0.00 0.00 98 1010.4
20260507100751 1 127 0.0 1.6 0.00 0.00 0.00 97 1010.3
20260507100250 1 92 0.0 3.2 0.00 0.00 0.00 97 1010.2
20260507095747 1 85 1.6 3.2 0.00 0.00 0.00 97 1010.2
20260507095243 1 74 0.0 1.6 0.00 0.00 0.00 98 1010.3
20260507094741 1 121 0.0 0.0 0.00 0.00 0.00 98 1010.1
20260507094238 1 109 3.2 3.2 0.00 0.00 0.00 98 1010.3
20260507093734 1 132 1.6 3.2 0.00 0.00 0.00 98 1010.4
20260507093233 1 73 0.0 3.2 0.00 0.00 0.00 98 1010.2
20260507092730 1 84 0.0 3.2 0.00 0.00 0.00 98 1010.2
20260507092226 1 88 1.6 3.2 0.00 0.00 0.00 98 1010.1
20260507091723 1 105 0.0 0.0 0.00 0.00 0.00 98 1010.0
20260507091219 1 101 0.0 1.6 0.00 0.00 0.00 98 1010.1
20260507090719 2 92 1.6 1.6 0.00 0.00 0.00 97 1010.2
20260507090216 2 110 1.6 1.6 0.00 0.00 0.00 97 1010.3
20260507085713 2 78 0.0 3.2 0.00 0.00 0.00 97 1010.2
20260507085210 2 74 0.0 1.6 0.00 0.00 0.00 96 1010.3
20260507084707 2 90 3.2 4.8 0.00 0.00 0.00 97 1010.3
20260507084203 2 82 0.0 3.2 0.00 0.00 0.00 97 1010.3
20260507083701 2 113 0.0 1.6 0.00 0.00 0.00 97 1010.2
20260507083157 3 91 0.0 1.6 0.00 0.00 0.00 97 1010.2
20260507082653 3 87 1.6 3.2 0.00 0.00 0.00 98 1010.3
20260507082149 3 109 0.0 0.0 0.00 0.00 0.00 98 1010.2
20260507081646 3 100 1.6 1.6 0.00 0.00 0.00 98 1010.3
20260507081143 3 86 0.0 1.6 0.00 0.00 0.00 98 1010.2
20260507080640 3 99 0.0 1.6 0.00 0.00 0.00 97 1010.3
20260507080137 3 35 0.0 0.0 0.00 0.00 0.00 97 1010.4
20260507075636 3 82 0.0 1.6 0.00 0.00 0.00 97 1010.3
20260507075133 3 152 1.6 3.2 0.00 0.00 0.00 97 1010.3
20260507074630 3 68 1.6 4.8 0.00 0.00 0.00 97 1010.3
20260507074128 3 324 0.0 1.6 0.00 0.00 0.00 98 1010.4
20260507073624 3 105 0.0 3.2 0.00 0.00 0.00 98 1010.3
20260507073121 3 277 0.0 3.2 0.00 0.00 0.00 97 1010.2
20260507072618 3 77 1.6 4.8 0.00 0.00 0.00 97 1010.4
20260507072115 3 152 1.6 4.8 0.00 0.00 0.00 97 1010.6
20260507071613 3 103 4.8 4.8 0.00 0.00 0.00 97 1010.4
20260507071109 3 100 3.2 4.8 0.00 0.00 0.00 97 1010.4
20260507070606 3 198 0.0 4.8 0.00 0.00 0.00 98 1010.3
20260507070103 3 126 1.6 3.2 0.00 0.00 0.00 98 1010.3
20260507065600 3 85 0.0 1.6 0.00 0.00 0.00 98 1010.4
20260507065057 3 98 1.6 3.2 0.00 0.00 0.00 97 1010.5
20260507064555 3 123 0.0 3.2 0.00 0.00 0.00 97 1010.5
20260507064053 3 104 3.2 6.4 0.00 0.00 0.00 97 1010.6
20260507063550 3 78 0.0 6.4 0.00 0.00 0.00 97 1010.5
20260507063047 3 104 3.2 6.4 0.00 0.00 0.00 96 1010.5
20260507062543 3 95 6.4 9.7 0.00 0.00 0.00 97 1010.5
20260507062041 3 86 3.2 4.8 0.00 0.00 0.00 97 1010.3
20260507061539 4 186 3.2 4.8 0.00 0.00 0.00 98 1010.5
20260507061037 4 286 1.6 3.2 0.00 0.00 0.00 98 1010.5
20260507060534 5 72 3.2 4.8 0.00 0.00 0.00 99 1010.4
20260507060031 5 91 1.6 4.8 0.00 0.00 0.00 99 1010.4
20260507055525 5 179 1.6 9.7 0.00 0.00 0.00 99 1010.3
20260507055022 5 66 1.6 11.3 0.00 0.00 0.00 99 1010.0
20260507054518 5 320 0.0 6.4 0.00 0.00 0.00 99 1010.2
20260507054015 5 84 1.6 3.2 0.00 0.00 0.00 99 1010.1
20260507053513 5 87 0.0 3.2 0.00 0.00 0.00 99 1010.1
20260507053011 5 359 1.6 4.8 0.00 0.00 0.00 99 1010.1
20260507052509 5 106 1.6 4.8 0.00 0.00 0.00 99 1010.2
20260507052005 5 89 1.6 4.8 0.00 0.00 0.00 99 1010.0
20260507051503 5 82 0.0 4.8 0.00 0.00 0.00 99 1010.1
20260507050959 5 84 3.2 9.7 0.00 0.00 0.00 99 1010.2
20260507050456 5 93 3.2 4.8 0.00 0.00 0.00 99 1010.0
20260507045953 5 80 3.2 6.4 0.00 0.00 0.00 99 1010.2
20260507045449 5 146 1.6 3.2 0.00 0.00 0.00 99 1010.0
20260507044947 5 22 0.0 1.6 0.00 0.00 0.00 99 1009.9
20260507044443 5 94 3.2 6.4 0.00 0.00 0.00 99 1010.1
20260507043939 5 112 1.6 3.2 0.00 0.00 0.00 99 1010.3
20260507043436 5 96 1.6 3.2 0.00 0.00 0.00 99 1010.2
20260507042932 5 150 0.0 1.6 0.00 0.00 0.00 99 1010.2
20260507042429 5 92 1.6 3.2 0.00 0.00 0.00 99 1010.2
20260507041925 5 72 0.0 1.6 0.00 0.00 0.00 99 1010.1
20260507041422 4 31 0.0 0.0 0.00 0.00 0.00 99 1010.1
20260507040919 4 4 0.0 0.0 0.00 0.00 0.00 99 1010.5
20260507040415 4 257 0.0 0.0 0.00 0.00 0.00 99 1010.3
20260507035911 4 284 0.0 0.0 0.13 1.14 1.14 99 1010.1
20260507035407 4 24 0.0 0.0 0.13 1.14 1.14 99 1010.2
20260507034904 4 242 0.0 0.0 0.00 1.12 1.12 99 1010.3
20260507034401 4 249 0.0 1.6 0.00 1.12 1.12 99 1010.2
20260507033859 4 296 0.0 0.0 0.00 1.12 1.12 99 1010.2
20260507033357 4 295 0.0 0.0 0.00 1.12 1.12 99 1010.0
20260507032853 4 301 0.0 0.0 0.00 1.12 1.12 99 1009.9
20260507032350 4 338 0.0 0.0 0.00 1.12 1.12 99 1010.0
20260507031846 4 269 0.0 0.0 0.00 1.12 1.12 99 1010.1
20260507031343 3 76 0.0 3.2 0.00 1.12 1.12 99 1009.9
20260507030840 3 340 0.0 0.0 0.00 1.12 1.12 99 1009.9
20260507030337 4 159 0.0 1.6 0.00 1.12 1.12 99 1009.9
20260507025834 4 158 0.0 0.0 0.00 1.12 1.12 99 1009.9
20260507025331 4 158 0.0 0.0 0.00 1.12 1.12 99 1009.9
20260507024829 5 158 0.0 0.0 0.00 1.12 1.12 99 1010.0
20260507024326 5 158 0.0 0.0 0.00 1.12 1.12 99 1010.5
20260507023822 5 158 0.0 0.0 0.00 1.12 1.12 99 1010.2
20260507023319 5 158 0.0 0.0 0.00 1.12 1.12 99 1010.2
20260507022816 5 158 0.0 0.0 0.00 1.12 1.12 99 1010.4
20260507022312 5 43 0.0 0.0 0.00 1.12 1.12 99 1010.5
20260507021809 5 43 0.0 0.0 0.00 1.12 1.12 99 1010.3
20260507021304 5 37 0.0 0.0 0.00 1.12 1.12 99 1010.3
20260507020802 5 312 0.0 0.0 0.00 1.12 1.12 99 1010.4
20260507020258 5 330 0.0 0.0 0.00 1.12 1.12 99 1010.4
20260507015756 5 246 0.0 0.0 0.00 1.12 1.12 99 1010.8
20260507015253 5 67 0.0 1.6 0.00 1.12 1.12 99 1010.9
20260507014750 5 353 0.0 0.0 0.00 1.12 1.12 99 1010.3
20260507014246 6 353 0.0 0.0 0.00 1.12 1.12 99 1010.5
20260507013743 6 88 0.0 0.0 0.00 1.12 1.12 99 1010.8
20260507013241 6 74 0.0 0.0 0.00 1.12 1.12 99 1011.0
20260507012738 6 65 1.6 3.2 0.00 1.12 1.12 99 1011.0
20260507012233 6 64 1.6 1.6 0.00 1.12 1.12 99 1010.7
20260507011731 6 75 0.0 1.6 0.00 1.12 1.12 99 1010.5
20260507011228 6 83 0.0 0.0 0.00 1.12 1.12 99 1010.6
20260507010727 6 212 1.6 1.6 0.00 1.12 1.12 99 1010.6
20260507010223 6 238 0.0 0.0 0.00 1.12 1.12 99 1010.4
20260507005721 6 46 0.0 1.6 0.00 1.12 1.12 99 1010.4
20260507005217 6 83 0.0 0.0 0.00 1.12 1.12 99 1010.5
20260507004714 6 56 0.0 0.0 0.00 1.12 1.12 99 1010.5
20260507004212 6 67 0.0 0.0 0.00 1.12 1.12 99 1010.4
20260507003707 6 76 0.0 1.6 0.00 1.12 1.12 99 1010.1
20260507003203 6 80 0.0 3.2 0.00 1.12 1.12 99 1010.0
20260507002659 6 78 0.0 0.0 0.00 1.12 1.12 99 1010.0
20260507002155 6 216 1.6 1.6 0.00 1.12 1.12 99 1010.0
20260507001652 6 260 3.2 9.7 0.00 1.12 1.12 99 1010.1
20260507001150 6 90 1.6 3.2 0.00 1.12 1.12 99 1010.0
20260507000646 6 265 0.0 1.6 0.00 1.12 1.12 99 1009.8
20260507000141 6 71 3.2 4.8 0.00 1.12 1.12 99 1009.6
20260506235639 6 22 1.6 3.2 0.00 1.12 1.12 99 1009.3
20260506235139 6 112 3.2 4.8 0.00 1.12 1.12 99 1009.1
20260506234636 6 124 3.2 9.7 0.00 1.12 1.12 99 1009.2
20260506234133 6 104 3.2 4.8 0.00 1.12 1.12 99 1009.5
20260506233630 6 63 1.6 6.4 0.00 1.12 1.12 99 1009.5
20260506233127 6 59 0.0 4.8 0.00 1.12 1.12 99 1009.3
20260506232623 6 129 3.2 6.4 0.00 1.12 1.12 99 1009.3
20260506232119 6 59 1.6 3.2 0.00 1.12 1.12 99 1009.0
20260506231616 6 265 0.0 3.2 0.00 1.12 1.12 99 1009.0
20260506231114 6 55 0.0 0.0 0.00 1.12 1.12 99 1009.2
20260506230611 6 75 1.6 11.3 0.00 1.12 1.12 99 1009.5
20260506230108 6 170 3.2 4.8 0.00 1.12 1.12 99 1009.1
20260506225604 6 92 1.6 6.4 0.00 1.12 1.12 99 1009.1
20260506225101 6 104 1.6 11.3 0.00 1.12 1.12 99 1009.3
20260506224558 6 286 1.6 4.8 0.00 1.12 1.12 99 1009.2
20260506224054 6 107 1.6 6.4 0.00 1.12 1.12 99 1009.1
20260506223550 6 84 6.4 11.3 0.00 1.12 1.12 99 1009.0
20260506223047 6 166 4.8 4.8 0.00 1.12 1.12 99 1009.1
20260506222544 6 145 4.8 6.4 0.00 1.12 1.12 99 1008.9
20260506222040 6 63 1.6 9.7 0.00 1.12 1.12 99 1008.9
20260506221538 6 76 0.0 3.2 0.00 1.12 1.12 99 1008.7
20260506221036 6 89 0.0 3.2 0.00 1.12 1.12 99 1008.7
20260506220531 7 208 0.0 3.2 0.00 1.12 1.12 99 1008.7
20260506220027 6 165 1.6 6.4 0.00 1.12 1.12 99 1008.6
20260506215524 6 273 3.2 4.8 0.00 1.12 1.12 99 1008.5
20260506215020 6 42 1.6 3.2 0.00 1.12 1.12 99 1008.3
20260506214517 6 211 1.6 6.4 0.00 1.12 1.12 99 1008.2
20260506214014 7 351 0.0 3.2 0.00 1.12 1.12 99 1008.3
20260506213513 7 71 1.6 4.8 0.18 1.12 1.12 99 1008.2
20260506213009 7 130 0.0 4.8 0.18 1.12 1.12 99 1008.1
20260506212505 7 76 0.0 4.8 0.00 1.09 1.09 99 1007.9
20260506212000 7 194 3.2 3.2 0.13 1.09 1.09 99 1007.8
20260506211456 7 74 1.6 4.8 0.13 1.09 1.09 99 1007.9
20260506210954 7 77 3.2 6.4 0.00 1.07 1.07 99 1007.9
20260506210450 7 174 4.8 9.7 0.00 1.07 1.07 99 1007.8
20260506205947 7 70 4.8 6.4 0.00 1.07 1.07 99 1007.6
20260506205443 7 265 1.6 11.3 0.00 1.07 1.07 99 1007.3
20260506204940 7 77 3.2 12.9 0.00 1.07 1.07 99 1007.3
20260506204438 7 115 6.4 14.5 0.00 1.07 1.07 99 1007.1
20260506203935 7 82 3.2 6.4 0.00 1.07 1.07 99 1006.9